This demonstration page uses our WeatherBlox Daily Observations layout. Learn more.

Left ArrowRight Arrow

44.8408, -93.29828

Hourly Observations for September 8, 2017

Temp ( °F °C ) Dew Point ( °F °C ) Humidity (%) Winds ( mph kmh ) Pressure ( in mb ) Visibility ( mi km ) Precip ( " mm )
12:53 am 00:53 Mostly Cloudy 57 13.9 52 11.1 83 83 E 12 19 30.04 1017 10 16 0.00 0.00
1:53 am 01:53 Mostly Cloudy 57 13.9 50 10 78 78 E 10 17 30.06 1018 10 16 0.00 0.00
2:53 am 02:53 Mostly Cloudy 56 13.3 50 10 81 81 E 10 17 30.07 1018 10 16 0.00 0.00
3:53 am 03:53 Mostly Clear 55 12.8 50 10 83 83 E 12 19 30.10 1019 10 16 0.00 0.00
4:53 am 04:53 Mostly Clear 54 12.2 49 9.4 83 83 ENE 12 19 30.11 1020 10 16 0.00 0.00
5:53 am 05:53 Mostly Clear 53 11.7 49 9.4 86 86 ENE 9 15 30.13 1020 10 16 0.00 0.00
6:53 am 06:53 Mostly Sunny 52 11.1 49 9.4 89 89 ENE 13 20 30.16 1022 10 16 0.00 0.00
7:53 am 07:53 Sunny 53 11.7 49 9.4 86 86 E 15 24 30.19 1022 10 16 0.00 0.00
8:53 am 08:53 Sunny 55 12.8 48 8.9 77 77 E 16 26 30.21 1023 10 16 0.00 0.00
9:53 am 09:53 Sunny 58 14.4 47 8.3 67 67 E 16 26 30.23 1024 10 16 0.00 0.00
10:53 am 10:53 Sunny 60 15.6 45 7.2 58 58 ENE 16 26 30.24 1024 10 16 0.00 0.00
11:53 am 11:53 Sunny 62 16.7 45 7.2 54 54 E 14 22 30.26 1025 10 16 0.00 0.00
12:53 pm 12:53 Sunny 65 18.3 45 7.2 49 49 E 14 22 30.26 1025 10 16 0.00 0.00
1:53 pm 13:53 Sunny 66 18.9 43 6.1 43 43 E 15 24 30.26 1025 10 16 0.00 0.00
2:53 pm 14:53 Sunny 67 19.4 43 6.1 42 42 E 12 19 30.25 1024 10 16 0.00 0.00
3:53 pm 15:53 Sunny 68 20 43 6.1 40 40 ESE 14 22 30.24 1024 10 16 0.00 0.00
4:19 pm 16:19 Sunny 68 20 42 5.6 39 39 E 14 22 30.21 1023 10 16 0.00 0.00
4:53 pm 16:53 Sunny 68 20 43 6.1 40 40 E 13 20 30.24 1024 10 16 0.00 0.00
5:53 pm 17:53 Sunny 67 19.4 42 5.6 41 41 E 13 20 30.24 1024 10 16 0.00 0.00
6:53 pm 18:53 Sunny 65 18.3 42 5.6 43 43 E 13 20 30.25 1024 10 16 0.00 0.00
7:53 pm 19:53 Clear 63 17.2 43 6.1 48 48 E 10 17 30.26 1025 10 16 0.00 0.00
8:53 pm 20:53 Clear 60 15.6 45 7.2 58 58 E 8 13 30.27 1025 10 16 0.00 0.00
9:53 pm 21:53 Clear 59 15 46 7.8 62 62 E 12 19 30.27 1025 10 16 0.00 0.00
10:53 pm 22:53 Clear 58 14.4 46 7.8 65 65 E 9 15 30.29 1026 10 16 0.00 0.00
11:53 pm 23:53 Clear 57 13.9 46 7.8 67 67 ESE 12 19 30.29 1026 10 16 0.00 0.00

Powered by AerisWeather